Wind_Speed
33 34 34 32 31 32 33 34 35 33 29 29 31 31 30 31 31 30 30 31 30 29 29 28 28 27 26 25 24 24 24 23 23 22 22 21 19 16 14 13 13 14 13 13 14 16 17 17 18 19 18 18 18 17 16 16 17 17 18 18 17 17 16 13 13 17 20 18 20 23 22 22 25 26 25 24 24 22 21 21 22 22 24 25 25
33 33 33 32 32 33 32 32 33 31 29 28 29 29 30 32 32 31 30 31 31 30 29 29 29 28 27 26 26 25 24 24 23 22 22 22 21 19 17 16 15 15 15 14 14 16 18 19 19 19 18 19 19 17 15 15 15 15 17 18 17 17 18 17 15 15 19 20 19 22 25 26 28 28 28 27 26 25 24 24 25 25 25 26 27
33 33 33 32 33 33 31 30 31 31 29 28 29 29 29 29 31 32 31 29 30 31 30 29 30 29 28 27 27 26 25 24 23 23 23 23 22 21 20 20 20 19 18 18 17 17 18 20 20 18 17 19 20 18 15 15 15 15 16 18 19 18 19 21 19 16 19 21 19 19 20 22 27 30 30 29 28 27 27 28 29 29 29 28 28
32 33 34 33 32 31 31 31 31 31 30 29 28 28 27 26 29 32 31 27 28 32 32 30 30 29 28 28 28 27 26 25 24 24 24 23 23 22 22 23 23 23 22 21 19 19 20 20 20 18 17 19 20 17 15 16 17 18 18 19 21 21 20 22 23 21 19 20 22 22 22 24 29 31 30 30 30 30 30 31 31 31 32 31 31
32 32 34 33 31 31 31 30 30 31 31 29 29 29 27 25 27 30 29 27 27 30 31 31 30 30 29 28 28 28 28 27 26 25 24 24 24 23 23 24 24 24 25 24 22 22 22 22 21 19 18 19 20 17 15 16 18 18 19 19 20 21 20 21 24 23 21 20 23 25 26 28 30 32 32 31 29 28 29 32 32 33 34 33 33
32 32 33 33 32 31 31 31 30 31 31 30 28 28 27 25 25 28 29 28 26 27 29 31 31 30 30 29 29 29 29 28 27 27 25 24 24 24 24 25 26 26 26 25 25 24 24 24 23 22 20 20 20 18 17 17 18 18 19 20 20 19 19 20 21 22 21 22 23 24 25 24 24 28 32 31 27 24 25 28 31 33 34 33 33
31 31 32 32 31 31 32 31 31 31 31 30 28 27 27 26 25 26 27 27 26 25 27 30 32 31 30 30 30 29 29 28 28 28 26 25 26 26 26 25 26 26 27 26 25 24 24 24 24 23 23 23 22 21 19 18 19 20 21 21 20 19 18 18 19 20 20 21 21 22 22 22 21 24 28 28 26 24 24 25 26 30 32 33 33
31 32 32 32 31 31 32 31 31 31 30 29 29 27 27 27 26 25 26 27 27 26 26 28 31 31 30 30 30 29 29 28 28 28 29 28 27 27 27 27 26 25 26 27 25 24 23 23 23 23 24 25 25 24 22 20 19 20 21 20 19 18 18 18 18 20 20 21 22 22 21 21 21 21 22 21 20 23 24 23 23 27 30 31 30
32 31 31 31 31 31 31 30 30 32 30 30 32 30 27 27 27 25 27 29 28 27 26 25 27 29 30 29 29 27 26 27 28 29 29 29 28 27 26 27 26 25 25 25 25 24 24 23 23 23 24 26 27 25 25 23 22 22 20 18 17 18 19 20 20 20 20 21 22 23 22 22 20 17 16 16 17 22 23 20 21 24 26 26 26
32 32 32 32 30 31 32 31 31 34 34 34 36 34 30 28 28 28 29 29 28 27 26 24 25 27 27 27 26 25 25 27 29 30 30 29 27 26 25 27 27 25 25 25 23 23 23 23 24 25 27 28 28 27 27 27 27 26 25 22 20 19 19 20 21 21 21 22 22 22 23 24 21 16 15 17 18 20 20 17 18 21 21 22 23
32 32 32 31 30 32 36 35 34 35 36 36 36 36 33 29 29 30 30 29 28 27 27 26 25 25 24 24 24 24 25 28 31 31 31 30 28 26 24 25 26 26 25 25 23 22 21 22 24 26 28 29 29 29 29 28 28 29 29 28 26 25 24 23 22 22 22 23 24 23 23 24 24 19 17 18 18 18 17 16 17 18 18 19 19
33 32 30 29 31 34 35 34 32 33 35 36 35 36 34 30 28 29 29 28 27 27 26 27 27 25 23 23 23 23 25 29 32 32 31 31 30 28 25 23 22 23 24 24 23 21 21 21 22 23 26 28 28 28 29 29 29 29 29 29 29 30 30 29 27 26 25 24 25 26 25 26 26 23 20 19 19 18 19 19 18 18 19 20 20
32 31 28 28 32 35 33 31 31 32 34 36 35 34 32 29 28 28 27 27 26 26 26 27 26 26 24 24 24 24 24 27 31 32 32 31 31 30 28 25 22 22 22 22 22 22 22 22 22 23 26 28 29 29 29 30 30 29 29 30 30 31 32 32 32 32 32 31 29 29 28 26 25 24 23 24 24 21 21 22 20 20 20 21 23
29 28 27 28 32 35 32 31 31 31 33 35 34 33 31 29 29 27 26 26 25 26 28 27 26 26 26 25 25 25 25 27 31 32 32 32 31 30 31 29 26 24 24 23 23 23 23 23 23 25 26 27 29 31 30 30 28 26 25 26 28 29 29 31 32 33 35 36 36 35 33 30 30 31 30 29 29 27 26 27 27 25 26 28 32
27 27 27 28 32 34 33 32 31 31 33 34 33 32 30 29 29 27 26 25 26 27 28 27 26 26 26 26 25 25 27 30 32 33 32 32 31 30 31 31 30 27 26 26 25 25 24 24 24 26 26 26 28 30 30 29 26 23 22 23 23 23 23 26 29 31 33 35 37 38 37 36 36 36 33 31 29 30 31 33 32 30 32 36 37
26 28 29 29 32 34 33 32 31 31 31 31 30 29 29 29 30 28 26 25 24 25 27 26 26 26 27 27 26 26 28 30 32 34 33 32 31 30 31 32 32 30 28 28 28 27 26 25 25 27 27 27 30 32 31 31 28 25 23 23 23 23 22 24 27 31 33 33 34 35 34 34 34 33 32 31 31 33 35 35 33 31 32 32 32
27 30 31 31 32 32 32 32 31 30 29 29 29 28 28 29 30 28 27 25 24 24 25 25 26 26 26 27 27 27 28 29 33 34 33 32 31 31 33 33 32 32 31 30 29 28 29 29 28 28 27 27 31 32 31 31 31 29 25 23 23 23 23 23 25 29 31 30 30 30 30 31 31 31 31 31 31 33 35 36 35 33 30 25 23
28 29 30 30 30 31 32 32 31 30 29 29 29 29 28 28 29 28 27 27 25 25 24 25 25 26 26 26 28 28 27 28 32 34 33 32 32 32 33 33 32 32 32 32 32 31 32 32 31 30 29 30 32 32 31 31 32 32 28 24 23 24 24 23 23 24 26 25 25 25 26 28 29 30 32 32 31 31 33 37 37 33 26 20 20
29 29 30 30 29 31 33 32 32 31 30 30 30 29 29 29 28 28 27 27 26 24 24 23 24 24 25 26 28 29 26 25 30 33 33 32 32 33 33 32 29 29 29 29 29 30 32 34 34 33 33 33 32 31 31 31 32 32 28 23 23 25 24 22 22 23 23 23 23 24 25 27 28 31 33 33 31 30 31 35 37 33 27 24 25
29 30 30 28 29 31 32 31 31 30 29 31 30 29 29 28 26 25 25 25 24 23 23 23 22 23 23 24 26 28 26 25 28 31 32 32 32 32 33 31 28 27 27 26 24 24 26 29 32 33 32 31 30 29 29 30 32 33 29 23 23 25 24 22 23 23 23 25 25 25 24 24 25 27 29 28 26 24 24 26 29 31 33 35 34
28 28 28 27 27 29 29 29 30 30 31 32 30 27 26 25 24 24 24 24 23 23 22 22 22 22 22 22 22 24 25 26 28 29 31 31 31 31 33 33 30 27 25 24 23 22 21 23 28 30 29 27 27 26 27 27 29 31 29 27 26 27 27 27 25 25 27 29 28 24 21 21 22 22 23 22 21 20 20 21 23 25 30 34 33
27 27 26 25 25 26 27 28 30 30 29 29 27 25 24 24 23 24 24 23 23 22 22 21 21 20 20 20 20 21 24 26 27 27 29 30 30 31 33 33 32 28 23 21 21 22 21 23 26 28 27 26 25 24 24 23 24 26 27 26 25 25 27 29 29 29 28 25 21 19 17 18 19 19 19 19 18 16 15 18 20 20 23 27 28
28 26 26 26 25 26 27 29 30 29 27 27 26 25 24 23 23 23 23 22 21 21 21 20 20 19 18 18 19 19 22 26 28 29 30 30 30 31 31 32 33 30 25 21 21 22 23 24 25 26 25 25 24 23 22 21 20 21 21 20 21 21 23 25 27 28 24 18 16 17 16 15 17 18 17 16 15 15 16 19 20 20 22 25 26
30 27 27 26 25 25 27 29 31 29 27 27 26 25 24 23 22 22 23 22 20 20 21 21 20 20 19 18 19 19 20 24 28 29 30 30 30 30 30 30 31 31 29 26 23 22 21 21 22 24 24 22 21 20 19 18 18 18 17 17 17 18 17 17 18 18 17 14 14 15 14 14 14 14 15 16 18 19 21 21 20 19 19 22 24
30 28 26 25 26 25 24 26 29 28 27 26 26 26 24 23 22 22 22 22 21 20 21 21 21 22 21 18 18 18 19 21 23 26 28 29 28 29 29 28 28 30 31 30 26 23 22 22 23 23 21 19 18 16 16 16 15 15 15 16 17 17 14 11 10 10 10 11 11 12 12 12 11 13 17 22 23 23 20 19 18 18 17 19 22
27 26 24 24 27 26 24 23 25 26 26 26 27 28 26 23 22 21 21 22 22 21 21 21 21 22 22 19 17 17 16 18 19 22 25 27 27 27 27 27 27 27 30 31 29 26 25 24 22 20 18 17 15 14 14 15 15 16 17 18 18 17 11 6 5 6 8 9 9 10 11 11 13 17 21 23 22 20 18 17 19 19 18 19 23
25 24 24 26 28 28 25 24 23 23 24 25 25 26 24 22 21 21 21 21 22 22 23 22 21 22 22 19 18 16 15 16 16 17 20 24 26 27 27 27 28 29 31 33 32 29 26 23 20 18 16 15 14 14 14 14 13 14 16 16 15 13 10 7 6 6 6 8 9 10 12 13 15 18 19 19 18 17 16 17 18 19 20 22 24
20 21 22 23 25 26 26 27 25 21 21 22 22 22 22 22 21 21 22 22 22 22 22 21 20 21 20 18 16 15 15 15 16 17 20 23 24 26 27 27 28 29 29 30 31 29 26 23 20 17 15 13 12 11 10 9 8 8 10 10 10 10 9 8 7 5 5 7 9 10 12 13 14 15 15 16 17 17 17 18 19 20 21 22 22
16 16 16 15 17 21 22 23 22 19 18 21 22 20 21 23 22 21 22 23 23 22 20 19 18 19 18 16 15 14 13 15 18 20 22 22 22 23 24 24 25 27 27 27 26 22 18 16 15 13 11 11 11 11 9 9 7 7 8 7 6 5 5 4 3 3 4 6 8 9 11 12 13 14 14 15 17 18 18 18 19 19 20 20 20
15 15 13 10 12 15 14 14 16 18 19 23 23 19 18 19 21 20 20 22 25 25 22 20 19 17 16 17 18 17 14 15 17 19 19 19 20 21 21 22 22 23 23 23 20 14 11 10 10 11 12 12 11 10 8 7 6 5 5 5 3 1 1 1 2 3 4 5 7 8 10 11 12 13 13 14 17 18 18 17 18 18 19 20 20
12 11 10 8 10 12 11 11 15 18 20 22 22 19 15 14 15 17 18 20 23 24 24 24 22 19 17 18 20 19 18 17 16 14 13 15 17 19 20 20 19 19 19 19 16 13 13 14 13 13 14 12 9 7 7 6 5 4 3 2 2 1 0 1 2 3 4 5 6 7 8 9 10 11 12 13 14 16 16 17 17 18 18 19 20
9 8 7 7 9 9 9 11 14 16 17 18 18 17 16 13 11 10 11 14 17 20 21 22 21 19 18 17 16 16 16 16 14 11 11 12 15 17 18 17 16 15 16 16 15 15 17 18 17 15 13 10 7 6 6 5 4 4 3 2 2 1 1 1 2 3 3 4 5 6 7 7 8 9 10 11 12 14 15 16 17 17 17 18 19
7 8 8 7 8 8 8 10 12 13 15 16 16 16 15 14 14 14 12 11 12 13 15 16 16 15 15 14 13 13 12 11 10 9 9 11 13 15 15 15 16 17 16 16 16 16 15 15 14 11 10 8 6 6 5 4 4 4 3 2 2 1 1 1 2 2 2 3 4 5 6 7 7 8 10 11 12 13 14 15 15 16 16 17 19
7 8 9 9 8 8 8 9 11 12 13 14 16 15 12 13 16 18 17 15 13 12 11 11 12 14 14 13 12 10 10 11 11 10 10 12 15 18 19 18 19 19 17 16 16 14 12 11 10 8 7 6 5 5 5 4 3 3 3 2 2 2 1 1 1 2 3 3 4 5 5 6 7 8 9 10 11 12 13 13 14 15 16 17 18
6 8 9 9 8 8 8 9 10 11 12 13 13 13 12 13 15 16 15 16 17 18 18 17 15 15 16 16 16 15 16 18 18 17 17 18 18 18 18 16 15 16 16 15 15 14 12 11 9 6 6 6 5 5 4 3 3 3 3 3 2 1 1 1 1 1 2 2 3 4 4 5 6 7 7 8 10 11 12 13 13 14 16 17 17
6 8 8 8 8 7 7 8 10 11 12 13 13 13 14 14 14 14 16 17 19 21 24 26 25 23 22 23 24 23 23 24 23 22 22 20 19 20 21 18 14 14 15 14 14 13 12 10 8 6 6 6 5 4 4 3 3 3 2 2 2 2 1 1 1 1 1 2 2 3 3 3 5 6 6 6 8 8 10 11 12 13 15 16 16
7 8 8 7 7 9 10 11 12 13 15 17 17 17 17 16 16 16 17 18 19 21 23 25 26 26 25 25 26 26 26 25 25 25 24 23 22 21 20 17 14 15 16 14 12 12 11 9 8 7 7 6 5 5 4 4 4 3 2 2 2 2 2 1 1 1 1 1 2 2 3 4 5 6 6 6 7 8 9 10 11 12 14 15 15
8 8 8 8 9 12 16 17 17 17 19 20 21 22 22 20 19 18 18 18 19 20 20 20 20 20 21 22 24 26 26 24 23 22 21 20 20 21 21 20 19 20 18 14 12 12 11 10 8 8 7 7 6 5 5 5 4 3 3 2 1 2 2 3 2 1 1 1 2 3 4 5 5 6 6 6 7 8 9 10 11 12 13 13 13
8 9 10 12 12 14 18 21 21 21 21 21 20 22 21 19 17 16 16 18 18 18 19 20 19 19 22 25 26 27 25 22 20 20 20 20 21 22 24 25 24 22 20 17 16 15 13 11 9 8 8 8 7 6 5 5 5 4 3 2 1 1 2 2 2 2 2 2 3 4 5 5 5 6 6 6 7 7 8 8 10 10 11 11 10
8 8 11 13 13 13 16 20 21 20 19 17 16 16 16 16 16 17 19 21 20 19 20 21 19 18 21 24 25 25 23 22 22 23 24 24 23 23 23 23 23 21 20 19 17 15 14 12 11 9 9 8 8 6 6 6 5 4 4 2 1 1 1 1 2 3 3 3 4 5 5 5 5 5 5 5 6 6 6 6 7 7 8 8 8
6 7 10 12 13 13 14 16 17 17 17 18 17 17 17 17 19 22 24 26 25 24 23 23 21 20 21 23 26 27 25 23 24 24 24 24 24 22 21 21 20 19 18 16 15 14 13 11 10 8 8 7 6 6 5 5 5 5 4 4 3 2 2 2 2 3 3 3 4 5 6 6 5 4 4 5 5 4 5 5 6 6 6 7 7
7 7 8 10 12 13 14 15 15 16 18 18 18 18 18 18 20 22 25 25 25 25 24 22 22 24 25 25 28 30 28 26 25 24 24 24 24 22 20 19 18 17 16 14 13 12 11 10 8 8 7 6 6 5 5 4 4 4 4 4 4 4 4 4 4 5 5 4 4 5 6 7 7 5 4 4 4 4 4 4 5 5 5 5 5
9 8 8 9 10 11 12 13 14 15 16 16 17 17 17 17 18 20 21 21 21 21 20 19 20 23 26 26 27 29 29 27 27 26 25 25 24 22 20 19 16 15 14 13 11 11 11 10 10 9 9 8 7 6 6 6 5 5 5 5 5 5 6 6 7 7 7 8 8 7 6 7 7 7 6 5 4 4 4 3 4 4 5 5 4
11 9 9 9 9 10 11 12 13 14 15 17 17 17 16 17 17 18 18 18 17 17 17 17 18 21 23 24 26 27 27 26 26 26 25 24 22 21 19 18 16 14 13 13 12 11 11 10 10 10 11 10 9 8 7 7 7 6 7 7 7 7 8 8 9 9 9 10 10 10 8 7 8 8 8 7 6 5 4 4 4 4 4 5 4
10 9 9 9 10 11 11 12 13 14 16 18 18 17 17 17 17 18 17 17 16 15 15 15 15 17 19 20 22 25 26 25 24 24 23 23 22 21 20 19 18 17 16 15 14 13 13 12 12 12 13 13 12 11 10 9 8 8 7 7 7 8 8 8 9 9 10 10 11 11 11 10 9 10 10 8 7 7 7 6 6 6 6 6 5
10 10 10 10 11 11 11 12 13 14 16 17 19 18 17 17 16 16 16 16 16 16 16 14 14 14 15 15 16 19 21 21 20 22 24 24 23 23 23 22 21 20 19 17 16 15 16 16 17 17 16 16 15 14 13 12 11 10 10 9 8 8 8 8 8 9 9 10 11 11 12 12 11 11 11 11 10 9 9 8 8 8 8 7 6
11 11 11 12 13 14 13 14 15 15 15 16 17 18 18 17 15 15 15 16 16 15 15 14 14 14 14 14 14 16 18 19 20 22 24 24 24 24 24 23 23 22 21 20 19 18 18 18 18 17 17 17 17 17 16 15 15 14 14 13 12 11 10 9 9 9 9 10 10 11 11 12 11 11 11 12 13 13 12 11 10 10 9 8 8
12 12 13 14 15 15 14 14 16 16 15 15 16 16 16 16 15 15 15 16 16 15 15 14 14 14 14 14 14 15 16 20 23 24 25 25 25 24 24 23 23 22 22 21 21 20 19 19 19 18 18 18 19 18 18 18 17 17 16 16 14 13 12 10 10 10 9 10 10 10 10 10 10 10 11 12 13 14 15 14 13 12 10 9 9
14 14 15 15 15 14 14 14 15 15 15 14 14 14 15 15 14 14 14 15 15 15 15 15 15 15 15 15 15 15 17 21 25 26 25 25 25 24 24 23 23 22 22 22 21 21 20 21 21 20 20 20 20 20 20 20 20 19 18 16 14 13 12 11 11 10 10 10 10 9 8 8 9 9 10 11 12 13 14 14 14 13 12 11 11
17 17 18 19 20 20 19 19 19 17 15 16 16 16 17 18 17 16 17 18 18 17 16 16 16 17 17 16 17 20 23 25 25 25 24 24 24 24 24 23 23 22 22 22 22 21 21 21 21 21 21 21 21 21 21 21 21 20 19 18 16 14 13 12 11 11 11 11 9 8 7 7 8 8 9 9 10 11 12 12 12 13 13 13 13
19 20 21 23 25 25 25 26 26 22 20 22 24 25 26 26 24 23 24 25 23 21 21 21 20 20 20 20 21 24 25 25 24 23 23 23 23 23 23 23 23 22 22 22 21 21 21 21 21 21 21 21 21 21 20 20 19 19 19 17 16 16 15 14 13 12 11 9 8 6 6 7 8 8 9 9 10 11 11 10 10 12 13 12 12
Wind_Direction
196 197 198 199 200 201 203 206 209 209 209 211 214 215 216 218 220 221 225 230 231 233 235 237 239 241 242 243 243 244 246 246 245 246 247 246 244 241 239 239 239 240 241 242 245 251 255 255 258 262 263 264 264 264 265 269 271 268 265 263 259 254 250 241 250 269 274 272 275 279 281 284 289 292 293 295 296 296 291 286 283 281 279 279 280
196 197 197 197 199 201 202 204 207 208 207 210 213 213 215 219 220 220 223 228 231 232 235 237 239 241 241 243 245 245 247 246 244 243 245 247 246 244 244 243 241 242 242 242 244 251 256 259 261 262 263 265 265 260 257 259 262 262 262 262 259 255 254 251 249 263 275 276 277 282 285 286 288 290 292 293 294 295 293 290 287 284 282 282 282
195 194 194 197 199 199 200 202 204 206 206 208 211 212 214 216 219 221 221 224 229 232 234 236 239 241 241 243 245 246 247 247 243 242 244 246 246 245 247 249 249 248 248 250 251 253 257 262 262 260 259 265 268 263 255 255 256 257 257 260 262 260 258 260 255 254 268 276 277 278 281 283 286 289 291 292 292 290 289 289 288 286 285 284 283
194 193 195 198 198 198 199 201 202 204 206 208 210 211 212 211 215 221 220 219 225 232 234 235 237 240 241 242 245 246 246 246 244 243 245 247 248 248 250 253 255 255 255 255 255 255 258 262 263 261 259 264 268 264 256 256 260 262 261 260 264 263 259 261 261 256 261 272 276 276 278 280 284 288 289 290 290 290 288 288 287 285 285 285 283
193 193 195 198 198 198 200 201 202 203 205 208 210 210 209 208 212 218 218 216 221 228 232 233 235 237 239 241 245 246 246 245 244 244 244 247 249 249 251 255 257 258 259 259 259 259 260 261 264 263 259 262 266 263 257 259 261 262 261 260 262 264 261 261 263 261 257 263 271 276 278 280 283 286 287 287 287 289 290 290 289 287 285 283 282
192 192 194 196 198 199 200 201 202 204 205 207 208 208 208 207 209 214 216 216 218 222 228 232 233 235 238 240 243 245 245 245 245 246 245 245 249 249 250 254 257 258 259 259 260 261 261 263 264 263 259 259 261 261 260 261 262 261 261 263 263 264 263 261 263 262 257 259 268 273 276 277 278 283 286 286 284 283 286 288 289 288 286 284 282
189 189 192 194 196 198 199 200 201 203 204 205 206 206 207 208 209 212 214 215 216 218 223 230 233 236 238 239 241 243 244 244 245 247 246 244 247 249 250 251 254 256 257 258 257 257 259 261 263 263 262 262 263 263 262 261 263 265 266 267 265 264 263 260 260 261 259 261 266 269 272 275 274 277 282 285 283 280 279 279 282 285 286 285 283
185 187 189 192 195 196 198 198 200 201 202 202 204 205 206 207 208 210 212 214 216 218 220 226 232 235 236 237 239 240 241 242 243 245 246 245 245 247 249 250 251 252 255 257 256 254 254 256 258 259 262 266 267 267 264 261 261 264 266 265 262 261 262 263 264 265 266 268 270 271 271 272 271 273 279 281 277 277 277 274 273 279 284 285 283
183 185 187 191 194 194 194 196 199 201 200 202 206 206 205 207 208 208 212 216 217 218 219 221 226 230 232 233 234 233 234 237 239 241 242 243 243 244 246 249 249 249 251 254 254 253 253 253 254 257 260 266 270 271 270 267 262 261 262 261 260 261 262 264 266 269 270 271 274 277 275 273 270 268 271 269 267 275 279 271 268 276 281 282 279
182 185 188 192 193 191 193 196 199 202 204 207 210 210 209 209 210 210 214 218 218 218 218 217 220 225 227 228 229 227 228 233 238 240 240 240 241 241 243 247 249 249 249 251 251 251 252 253 256 261 265 269 272 274 274 272 269 267 265 263 260 260 263 266 269 271 273 274 277 279 279 279 278 271 268 271 272 277 278 269 269 276 279 278 276
182 187 191 193 191 193 197 200 202 205 207 210 212 213 212 211 212 214 216 218 218 218 217 217 218 221 222 223 224 224 227 235 240 242 242 242 241 240 241 246 248 249 249 250 250 250 251 254 259 264 269 272 274 275 276 275 273 272 271 269 265 262 261 264 268 271 272 274 278 279 278 281 284 278 273 277 278 277 276 272 272 276 275 277 279
185 189 191 189 190 195 198 199 201 204 207 209 211 213 213 210 211 214 215 216 216 216 217 218 220 221 220 222 224 224 229 237 241 243 244 244 243 241 240 242 244 246 246 247 249 250 251 254 258 261 266 270 273 275 277 277 277 276 276 274 271 268 265 262 263 266 267 271 276 278 277 281 285 283 277 277 280 280 281 279 274 272 271 273 278
187 189 189 187 190 195 195 195 198 201 205 208 210 210 210 209 211 212 213 214 215 216 218 219 220 220 220 221 224 226 231 238 243 245 245 245 244 242 241 241 241 243 245 245 247 249 250 253 255 258 264 269 273 274 274 275 278 279 279 278 275 273 271 267 265 264 264 265 268 272 274 275 279 281 278 278 282 282 280 280 277 274 270 269 274
185 185 186 188 191 194 194 194 197 200 203 206 207 208 208 209 211 212 213 213 213 215 218 219 219 220 220 222 225 228 232 238 243 246 246 245 245 243 242 242 241 243 245 246 246 247 249 252 254 259 263 267 271 274 274 273 272 273 275 276 275 275 275 274 273 270 266 263 262 265 269 271 274 278 279 279 281 281 279 278 278 278 276 275 278
181 182 184 187 190 193 194 195 197 199 202 204 205 206 207 208 209 211 212 212 213 216 219 219 220 221 221 223 225 229 233 238 242 245 246 245 244 243 243 243 242 244 245 245 246 247 249 250 253 259 261 262 267 272 274 273 270 266 267 270 271 272 272 272 275 277 274 270 268 269 271 274 276 278 279 279 279 280 280 279 279 280 281 281 283
180 183 186 189 191 193 194 195 197 198 199 201 202 204 205 207 209 210 211 213 215 217 219 219 220 221 222 222 224 229 234 237 240 244 246 245 242 241 242 242 242 243 244 246 246 248 250 249 252 257 258 260 266 272 275 274 271 266 266 269 271 271 270 271 276 279 280 279 278 278 279 282 283 282 283 283 281 281 282 281 280 279 278 279 282
184 186 189 191 192 193 193 194 196 197 197 198 201 203 205 207 209 209 210 213 215 216 217 219 220 221 222 220 222 227 232 236 239 242 244 243 239 238 239 240 241 243 245 247 248 249 251 251 252 255 256 259 266 272 276 276 272 267 267 269 271 274 278 279 279 280 283 285 286 287 289 290 291 291 289 287 285 283 280 277 278 277 274 274 276
187 188 191 192 191 191 193 194 195 195 196 198 201 204 205 208 209 209 210 213 216 217 218 219 220 221 221 220 222 226 229 234 239 242 242 241 238 237 238 238 239 242 245 248 250 252 255 256 255 254 255 260 266 271 274 273 270 269 268 268 272 278 282 283 281 283 288 290 292 294 295 295 296 296 293 291 289 285 276 273 276 276 272 269 270
189 190 191 191 191 192 193 195 196 196 197 199 202 204 207 209 210 210 211 214 216 218 219 218 219 221 221 222 226 228 229 232 238 242 242 240 237 235 235 235 236 239 243 247 249 252 255 258 259 258 258 262 266 270 272 270 268 267 266 268 273 278 279 279 281 286 290 292 294 295 295 295 296 296 295 294 292 287 278 275 277 274 268 266 267
189 190 190 191 192 193 195 196 196 197 199 201 204 206 208 210 209 208 211 214 217 219 219 218 220 222 222 223 226 228 227 229 235 241 241 239 236 234 232 232 232 235 239 242 244 248 251 256 260 263 263 264 265 268 270 268 267 266 265 264 268 272 275 278 282 285 288 291 293 293 292 291 291 291 293 294 293 291 286 281 278 273 269 268 266
186 186 188 190 193 194 196 197 198 200 203 205 206 207 208 209 207 207 211 214 216 218 218 219 222 225 225 225 225 226 227 229 233 238 240 239 236 233 231 231 232 234 235 238 240 244 246 249 257 265 267 267 268 269 269 269 268 266 264 263 265 270 274 277 280 283 286 288 290 291 291 290 290 291 292 293 292 293 291 287 283 276 271 269 268
184 184 186 190 193 194 196 199 200 202 205 205 204 205 207 208 207 207 210 212 214 216 217 217 222 226 227 227 226 225 229 233 233 235 240 241 239 235 233 234 235 233 232 235 238 241 243 246 255 264 268 268 270 270 270 271 269 266 267 269 271 274 276 277 279 282 284 285 287 288 289 290 292 293 292 293 295 296 294 291 288 284 277 273 273
185 186 189 191 193 195 197 200 203 204 204 203 203 205 207 206 205 206 207 208 211 214 214 215 220 226 228 229 228 225 228 236 238 238 240 243 243 240 238 239 240 236 232 234 237 240 244 248 254 261 265 266 268 269 270 271 268 268 273 277 276 276 275 276 278 280 281 282 284 287 289 289 291 293 295 299 303 302 299 296 293 290 286 283 280
187 188 189 192 194 196 198 202 204 205 205 203 204 206 206 205 205 204 204 206 210 215 219 219 222 227 229 229 229 227 227 235 240 242 242 243 244 244 242 243 242 238 234 235 238 240 243 246 251 257 262 263 265 266 267 268 269 272 277 279 278 277 274 273 275 278 280 281 282 285 288 289 292 297 301 304 307 308 306 304 300 297 293 289 287
189 190 190 193 195 196 198 201 204 206 205 203 205 207 206 204 204 204 205 207 211 215 221 221 222 228 231 228 228 229 227 229 236 242 244 244 244 245 245 244 244 240 237 237 239 241 243 245 248 254 258 260 261 261 262 265 268 271 274 275 277 278 275 270 268 270 274 277 280 284 290 293 298 302 305 309 314 318 319 315 310 308 304 299 296
191 191 192 195 198 199 199 200 203 205 205 204 207 210 207 204 204 205 205 207 211 216 220 220 222 228 232 230 228 227 225 225 230 236 242 244 244 244 245 244 244 242 238 236 236 239 242 244 246 249 250 252 253 253 255 260 263 267 271 274 275 275 273 267 264 269 277 283 289 293 297 303 307 311 316 321 324 324 323 319 315 314 314 312 308
193 195 199 202 203 204 203 202 202 202 202 205 209 211 209 205 204 204 203 206 212 218 221 222 223 227 231 230 228 225 224 224 223 226 234 240 241 241 241 241 240 239 237 235 235 236 237 239 239 240 241 243 246 249 253 259 263 265 266 267 265 264 263 266 273 279 287 293 298 301 305 311 316 321 326 326 321 319 321 323 320 319 320 320 314
189 194 198 202 205 207 208 208 206 203 202 204 207 208 208 208 208 207 206 207 209 214 217 218 218 221 224 224 224 224 225 225 222 221 227 234 237 238 237 238 238 237 237 237 236 234 234 235 236 237 238 238 237 238 240 242 243 246 247 248 251 256 262 272 281 288 293 299 306 311 315 319 322 324 324 322 320 323 328 330 327 323 323 323 318
171 177 182 187 197 204 207 208 208 204 199 199 201 203 206 207 209 212 211 210 210 211 213 213 213 217 219 220 221 221 221 225 231 234 237 239 237 235 235 236 237 237 237 236 233 228 224 224 226 226 222 214 208 206 205 207 209 216 223 226 233 251 267 286 306 311 314 319 319 319 321 322 322 325 327 326 326 329 333 334 332 328 327 326 322
161 166 169 168 180 189 192 194 197 197 195 194 193 192 197 202 206 208 210 211 213 215 217 218 218 217 217 220 224 226 226 231 239 244 245 243 239 237 236 236 235 236 235 230 222 209 195 190 191 190 186 183 182 180 179 181 185 197 212 212 202 208 268 322 335 329 329 329 323 320 321 322 325 329 332 329 329 333 336 337 334 331 331 331 328
161 159 162 166 172 175 171 173 182 186 187 187 184 179 177 184 193 201 206 210 213 215 219 223 225 225 226 229 232 232 231 234 240 247 248 241 236 232 230 229 230 231 226 213 197 180 170 165 161 164 167 166 163 162 161 164 166 168 173 169 146 119 77 15 349 340 335 326 320 320 324 327 328 330 331 331 332 334 335 335 336 336 336 337 335
156 143 146 161 169 168 164 165 169 170 171 174 175 170 160 150 148 165 189 200 205 209 214 220 224 226 228 232 235 235 232 232 235 239 237 232 228 224 222 220 214 205 194 182 166 156 156 153 150 154 158 155 155 156 151 148 151 147 141 141 138 122 78 31 350 336 327 320 323 329 332 332 330 329 330 332 332 331 332 335 340 342 342 344 343
136 134 142 151 157 161 160 159 162 165 165 168 172 170 162 149 135 125 128 151 175 189 198 206 211 212 214 217 221 223 222 216 213 212 209 206 201 193 184 178 170 163 161 161 155 149 146 140 136 141 146 143 144 144 134 131 135 132 135 141 120 84 49 19 352 331 325 328 334 337 334 332 332 331 334 336 333 332 335 339 343 348 350 350 348
118 133 145 149 149 153 156 157 162 165 164 166 169 167 159 147 140 133 126 124 127 133 145 163 180 187 188 187 187 185 178 171 165 161 160 160 156 146 136 134 139 143 149 155 149 136 124 115 113 120 128 127 127 125 119 121 127 126 129 119 89 67 37 18 7 351 349 347 343 338 333 335 339 338 339 341 337 334 339 345 350 355 356 354 349
117 123 128 133 135 139 145 151 156 159 159 158 157 151 141 136 137 137 131 121 112 107 106 113 129 148 154 150 145 143 143 141 138 136 136 138 140 137 129 121 120 123 126 128 121 112 108 105 103 108 115 113 113 112 109 109 109 102 98 93 85 86 71 41 23 7 3 354 343 342 337 337 343 341 337 340 341 341 346 352 357 0 360 356 353
107 110 112 117 122 125 132 139 144 149 151 147 139 131 126 125 125 121 117 114 111 107 104 106 110 118 124 128 130 131 131 130 130 130 131 133 137 137 131 124 116 108 103 100 98 98 98 97 96 103 105 100 99 103 98 92 87 84 85 93 99 105 91 57 51 39 17 352 346 352 347 343 348 346 338 338 343 348 352 354 0 6 4 360 357
81 92 97 102 114 123 126 129 134 138 140 139 135 129 122 118 116 113 110 109 111 110 110 109 109 110 113 117 122 126 127 128 128 128 129 133 136 132 123 117 110 101 95 91 91 91 91 93 98 101 97 93 96 95 84 74 71 70 74 85 87 84 79 66 64 67 38 8 4 5 3 4 3 353 343 342 348 354 357 359 2 6 5 3 2
70 87 98 102 114 124 127 127 127 129 131 132 131 128 124 118 113 110 109 112 114 114 113 112 111 112 114 116 119 121 120 117 113 111 113 118 120 114 109 106 103 98 94 92 93 94 95 95 93 89 86 85 83 78 70 63 57 51 51 58 56 50 55 55 53 50 33 9 11 16 15 15 12 360 351 350 353 357 1 4 6 7 7 6 6
67 93 109 113 116 122 125 126 124 122 123 124 124 124 122 118 114 111 111 111 112 112 113 113 114 120 124 124 124 123 117 108 100 97 97 99 99 100 103 103 101 100 100 100 100 100 98 95 92 88 86 82 75 70 66 57 47 39 36 37 45 50 52 52 44 33 24 8 3 12 16 16 11 0 353 353 357 359 2 7 9 9 6 3 3
70 95 109 113 115 117 120 123 122 120 120 120 118 117 117 117 118 116 113 111 109 109 112 114 117 125 129 129 128 125 116 107 104 102 99 97 97 97 98 99 99 101 103 103 104 106 106 106 105 102 97 91 83 78 74 64 56 50 38 30 45 69 54 47 26 17 11 360 352 355 360 2 0 354 348 349 354 356 356 1 6 4 1 359 359
84 100 108 111 114 115 116 116 115 115 117 117 116 116 116 117 117 116 115 114 113 113 112 113 116 124 130 132 131 125 116 108 107 105 102 101 102 101 99 100 102 103 103 103 104 106 104 104 104 104 106 107 102 95 89 80 72 66 53 42 41 32 16 13 10 3 355 345 339 337 338 339 338 335 336 338 341 343 345 351 354 351 351 358 359
100 100 104 107 110 113 114 112 110 111 112 113 114 116 118 119 119 118 117 116 116 114 112 109 111 118 125 129 129 125 117 113 112 111 108 108 108 106 105 104 104 104 105 104 104 104 102 100 99 96 97 100 100 97 93 81 70 67 61 49 39 27 15 7 1 357 352 342 331 322 320 319 315 310 312 316 320 326 333 340 341 339 340 348 355
114 105 103 106 108 109 109 110 110 110 111 111 113 115 117 117 117 117 116 115 115 114 113 111 111 113 117 122 124 121 117 115 115 113 111 111 110 108 107 105 101 101 103 103 100 99 99 97 93 89 85 84 81 77 72 63 53 47 42 35 26 19 11 3 357 353 346 341 336 327 315 306 303 301 295 289 295 310 317 317 319 323 326 329 337
122 116 112 107 105 105 106 108 109 109 109 110 110 110 111 111 112 113 113 112 113 113 113 113 113 111 111 115 118 117 115 114 114 113 113 113 112 110 108 106 103 101 102 102 101 98 95 92 90 88 86 83 78 72 67 59 49 39 32 26 19 14 10 4 357 349 341 336 334 331 321 307 297 294 290 284 284 288 290 288 291 294 300 307 316
124 124 123 114 108 107 106 107 109 110 110 111 110 108 110 110 110 112 112 111 111 111 110 109 110 108 106 108 113 114 115 115 114 114 115 114 113 112 111 110 108 105 103 101 99 97 96 96 94 91 88 84 81 77 71 63 55 46 37 29 21 14 7 360 354 348 341 336 333 329 325 315 300 291 288 285 280 278 276 277 277 275 275 280 284
129 128 129 124 119 116 113 114 116 115 113 113 112 112 112 110 108 109 111 110 110 110 108 106 106 106 103 103 106 110 113 113 112 113 113 112 111 112 113 111 111 109 106 104 102 101 101 101 99 96 91 86 81 77 73 67 61 54 46 38 28 18 8 1 354 347 343 339 334 328 324 319 307 294 287 283 277 273 270 269 268 267 269 269 265
134 125 125 123 121 122 122 122 123 120 114 110 109 109 109 110 109 109 110 110 110 110 108 107 107 105 103 102 104 106 109 110 110 112 112 111 112 113 112 111 111 110 109 108 107 106 103 100 97 94 91 85 79 74 69 63 58 52 46 38 29 18 8 0 354 350 349 346 338 329 324 320 311 299 289 282 276 270 265 262 260 258 257 256 254
136 123 119 116 115 118 120 121 123 124 120 113 109 108 108 109 109 110 110 110 109 109 108 106 105 104 103 104 105 106 108 111 114 115 115 114 114 114 112 111 110 109 108 108 107 104 101 97 93 89 85 81 75 69 63 58 54 48 42 35 27 18 9 1 353 351 351 349 343 335 326 318 310 303 297 291 283 276 269 264 262 258 253 250 247
137 126 121 116 112 113 115 113 115 120 121 115 111 110 110 108 107 107 108 106 104 104 105 104 104 105 106 106 107 110 113 116 117 117 117 116 116 115 113 111 110 108 107 105 103 100 97 95 91 86 82 77 72 67 60 56 51 46 39 33 26 19 13 5 359 354 350 348 347 342 330 317 311 310 307 302 295 286 278 272 268 264 259 254 248
136 129 125 122 121 121 119 114 109 108 110 110 108 106 106 106 104 103 104 104 101 100 100 100 100 103 105 104 107 112 116 117 118 119 119 118 117 116 114 112 110 108 105 102 99 96 93 89 85 82 79 74 70 65 59 54 50 46 40 33 27 23 18 13 8 2 355 350 350 347 337 328 327 329 328 323 313 303 296 290 283 276 268 261 255
134 128 124 123 124 124 121 116 112 107 104 106 108 107 105 104 103 103 104 105 103 102 103 103 102 103 105 107 110 113 116 118 118 118 118 118 116 115 113 111 108 105 102 98 95 92 89 86 83 80 76 72 69 65 60 55 51 47 40 34 30 27 24 20 16 11 4 358 356 354 349 345 345 345 345 344 337 329 326 322 308 293 284 277 269
Height
779 782 785 789 792 794 798 801 804 807 809 812 814 816 819 820 823 825 827 829 831 834 836 837 839 841 842 844 845 847 848 850 852 853 855 856 857 858 859 859 860 860 861 861 861 862 862 862 862 862 863 864 864 865 865 866 867 867 867 867 867 867 867 868 867 861 858 859 859 858 858 858 857 857 857 857 857 856 856 856 855 854 853 852 852
774 778 781 785 787 790 794 797 801 804 806 809 811 813 816 817 820 823 824 827 828 831 833 834 836 838 840 841 842 844 845 847 849 850 852 853 854 855 856 857 857 857 858 858 858 859 859 859 860 860 861 861 861 863 863 864 864 864 865 865 864 865 865 865 865 862 857 856 856 856 855 855 854 853 854 854 853 853 852 851 851 850 850 850 849
770 774 777 781 783 787 791 794 797 800 803 805 807 810 812 814 817 819 822 824 826 828 830 832 833 835 837 838 839 841 842 844 846 847 849 850 851 853 853 854 854 855 855 855 856 857 857 857 857 858 858 858 858 860 861 861 862 862 862 862 862 862 862 862 862 860 857 853 853 854 853 852 851 850 850 850 850 849 849 848 847 846 846 846 846
766 769 773 777 781 784 787 790 793 796 799 801 803 806 809 811 814 816 819 821 822 824 826 828 830 832 834 835 836 838 839 841 843 844 846 847 848 850 850 851 851 852 852 853 853 854 854 854 855 855 856 856 856 857 858 859 859 859 859 859 858 859 859 859 858 857 856 852 851 851 850 849 848 847 847 846 846 845 845 844 844 843 842 843 842
761 764 768 774 778 781 784 786 789 792 795 797 800 803 806 808 810 812 815 818 819 821 823 825 827 828 830 832 833 835 836 838 840 841 843 844 845 847 848 848 849 849 849 850 851 851 852 852 852 853 853 853 853 854 855 855 856 856 856 856 856 855 856 856 854 854 853 851 848 847 847 846 844 844 844 843 842 842 841 840 839 839 838 838 838
756 760 765 770 773 776 780 783 785 788 791 794 796 799 802 805 807 809 811 814 816 818 819 821 823 825 826 828 830 831 833 835 837 838 840 841 842 844 845 845 846 846 847 847 848 848 849 849 849 850 850 850 850 851 852 852 853 853 853 853 853 853 853 852 851 851 850 848 846 844 843 842 841 840 840 840 840 839 838 837 835 834 833 833 833
752 756 760 765 769 772 775 778 781 784 787 790 793 796 798 801 803 805 807 810 812 814 816 817 819 821 823 825 826 828 830 832 834 835 837 838 840 841 842 842 843 843 844 844 845 845 846 846 846 846 846 846 847 848 849 849 849 849 849 849 850 850 850 849 849 848 847 845 844 841 840 839 838 837 836 837 837 836 836 834 832 830 829 828 828
747 752 756 761 764 767 770 774 777 780 783 786 789 792 795 797 800 802 804 806 808 810 812 814 816 818 820 821 823 825 827 829 830 832 833 835 836 837 838 839 840 840 840 841 842 842 843 843 843 843 843 843 843 845 846 846 846 846 846 847 847 847 847 846 846 845 844 843 841 839 837 835 834 833 834 834 833 832 832 831 829 826 825 824 823
743 748 752 756 759 762 766 770 773 776 780 782 785 788 791 794 796 799 800 802 805 807 809 811 813 814 816 817 819 821 823 825 826 828 829 831 833 834 835 836 836 837 837 838 838 839 839 840 840 840 839 839 840 841 842 843 843 843 843 844 845 844 843 843 843 842 841 840 838 836 835 832 831 830 831 831 830 828 828 828 826 823 822 820 819
738 744 748 751 755 758 762 766 769 772 776 778 781 785 788 790 793 795 797 799 802 804 806 808 810 811 813 814 816 818 819 820 821 823 825 827 829 831 832 832 833 834 834 835 835 836 836 837 836 836 836 836 836 837 837 838 838 839 840 841 842 842 841 840 840 839 838 836 834 833 831 829 828 828 828 827 827 825 825 825 823 821 820 816 813
734 739 743 746 751 755 758 762 765 769 772 775 778 781 784 787 789 792 794 796 799 801 803 805 806 808 809 811 813 814 815 815 817 819 821 823 826 828 829 829 830 830 831 831 832 833 833 833 833 833 832 832 832 832 833 833 834 834 835 836 838 838 837 837 837 836 835 833 831 830 828 826 826 827 825 824 824 823 822 822 820 818 817 813 809
731 735 739 743 747 750 755 759 762 765 768 771 775 777 781 783 786 788 791 793 795 798 800 801 803 805 807 808 809 810 811 811 813 815 817 819 821 824 825 826 827 827 828 828 829 830 830 831 831 830 829 828 829 829 828 828 829 830 831 832 833 833 833 833 833 833 832 830 827 826 826 824 823 824 824 822 821 821 820 819 818 816 814 810 807
728 733 737 741 744 747 752 756 759 762 765 768 771 774 777 780 782 785 787 790 792 794 796 798 800 802 803 804 806 807 807 808 809 811 813 815 817 820 821 823 823 824 824 825 826 826 827 827 828 827 826 825 825 825 825 825 825 825 826 827 827 827 828 828 828 828 827 827 825 823 822 822 821 821 822 820 819 819 817 815 815 813 810 807 804
726 730 734 737 741 745 749 752 755 759 761 765 768 770 773 776 778 782 784 787 789 790 792 795 796 798 799 801 802 803 804 804 805 807 809 811 813 816 817 819 820 820 820 821 822 822 823 824 824 823 823 823 822 821 821 821 822 822 822 822 822 823 823 823 823 822 822 822 821 818 818 819 818 818 819 818 817 816 815 812 811 810 808 804 800
723 727 731 734 738 742 745 748 752 755 758 761 764 766 769 772 775 778 781 783 785 786 788 791 792 794 796 797 798 799 800 800 802 803 805 807 810 812 813 814 815 816 816 817 818 818 819 820 820 820 820 820 819 818 818 818 818 819 820 820 820 820 819 818 817 816 816 816 816 814 814 815 815 814 815 815 814 813 811 809 808 807 805 800 796
720 724 727 731 734 738 741 745 748 751 754 757 760 763 766 768 771 774 777 779 781 782 784 786 788 790 791 793 794 795 795 796 798 799 801 804 806 808 809 810 811 812 812 813 814 814 815 816 816 816 816 816 815 815 814 814 815 816 816 816 816 816 816 816 814 812 812 812 811 811 811 811 811 810 811 811 810 809 808 805 804 804 802 798 793
717 720 723 726 730 733 737 740 743 747 750 753 756 759 761 764 767 770 773 775 777 779 780 782 783 785 786 788 789 790 791 792 793 795 797 800 803 804 805 806 807 808 808 809 810 810 811 812 812 813 813 812 812 811 811 811 811 812 812 813 812 812 812 812 811 809 808 808 807 807 807 806 806 805 806 806 805 805 805 801 799 799 798 795 791
713 716 719 723 726 729 733 736 739 743 746 748 752 755 757 760 763 765 768 770 772 774 776 777 779 780 781 783 784 785 786 788 789 791 793 796 798 800 801 803 803 804 804 805 806 806 806 807 808 809 809 808 808 808 808 809 808 808 809 810 809 809 809 809 808 806 805 805 804 804 803 802 801 800 800 800 800 801 801 797 795 795 794 791 788
709 713 716 720 723 726 729 732 735 738 741 744 747 750 753 756 758 761 764 766 768 770 772 773 774 775 777 778 779 781 782 784 785 786 789 791 794 796 797 799 799 800 801 801 802 802 802 802 803 804 804 804 804 804 805 805 805 805 806 808 807 806 805 805 805 804 803 803 802 801 800 799 798 796 795 795 795 796 795 793 792 792 790 787 784
705 709 713 717 720 723 726 729 732 734 737 740 743 746 749 752 755 757 760 762 764 766 767 769 770 771 772 774 775 776 778 779 780 781 784 786 789 791 793 794 795 796 797 798 798 798 798 798 798 799 800 800 801 801 802 802 802 802 804 805 805 802 802 802 802 802 801 800 800 799 798 797 795 793 792 791 791 791 790 788 788 788 786 782 780
702 707 711 714 717 720 723 726 729 731 734 737 740 743 746 748 751 754 756 758 760 761 763 765 766 767 768 770 771 772 773 775 776 777 779 782 784 786 788 789 790 792 793 794 794 795 795 795 794 794 795 796 797 798 798 798 799 799 800 801 801 799 799 799 799 799 798 797 797 796 795 794 792 791 790 789 788 788 786 785 783 783 781 778 775
700 704 708 712 715 718 721 723 726 728 731 734 737 740 742 745 748 750 752 754 756 757 759 761 762 764 765 766 767 768 769 771 772 774 775 777 779 781 783 784 786 788 789 790 791 791 791 791 791 791 792 793 794 794 794 795 795 795 796 796 797 797 797 797 796 796 796 795 794 793 792 791 790 788 787 787 786 785 784 782 781 780 778 775 772
698 702 706 709 712 715 717 720 722 725 728 731 734 736 739 741 744 746 748 750 753 754 756 758 759 761 762 763 764 765 766 767 768 770 771 773 774 776 778 780 782 784 786 787 787 787 787 787 788 788 789 790 790 791 791 792 792 792 792 793 794 795 795 794 794 793 793 792 791 790 790 789 788 786 785 784 783 782 781 779 778 777 775 772 770
696 700 703 706 709 711 714 717 719 722 725 728 730 733 735 738 740 742 744 747 749 751 753 755 756 757 758 759 760 761 762 762 764 765 767 769 771 772 774 776 778 780 782 783 783 784 784 784 785 785 786 787 787 788 788 788 789 789 789 790 791 791 792 792 791 790 790 790 789 788 788 787 785 784 782 781 780 778 777 775 774 773 771 768 766
694 697 700 703 706 708 711 714 716 719 722 724 727 729 731 734 736 738 741 743 745 747 749 751 753 754 755 755 756 757 758 759 760 762 763 765 767 768 770 772 774 776 778 779 780 781 781 781 782 783 784 784 785 785 786 786 786 787 787 788 788 788 788 789 789 789 789 788 788 787 786 785 783 782 780 778 776 774 773 772 770 769 767 765 762
692 695 698 700 703 706 709 711 713 716 718 720 722 724 727 730 732 734 737 739 742 744 745 747 749 751 752 752 752 754 755 756 757 758 760 762 763 765 767 768 770 772 774 776 777 777 778 779 779 780 781 782 783 783 784 784 784 785 785 786 786 786 786 787 787 787 787 787 786 785 784 783 781 779 777 775 774 773 772 770 768 766 764 762 759
691 694 696 699 701 703 706 708 710 713 715 717 719 721 723 726 728 730 733 735 738 740 742 743 745 747 748 748 749 750 752 753 754 756 757 758 760 761 763 765 767 768 770 772 773 774 775 776 777 779 780 780 781 781 782 782 783 783 783 783 783 784 784 784 784 784 785 784 784 783 782 780 779 777 775 774 773 772 771 769 767 765 763 761 757
690 692 694 696 699 701 703 705 707 709 712 714 716 718 720 722 724 726 728 730 733 735 737 739 741 742 744 744 746 747 749 750 751 752 753 755 756 758 760 761 763 764 766 767 769 771 773 774 775 777 778 779 779 780 780 781 782 782 782 782 782 782 782 782 782 783 783 783 782 781 780 779 777 776 775 773 772 771 770 768 766 764 762 759 756
690 692 693 694 696 698 700 702 704 707 709 710 712 714 716 718 720 723 724 726 729 731 733 735 737 739 740 742 743 744 746 747 748 749 750 752 753 755 756 758 759 761 762 764 766 768 770 772 773 775 776 777 777 778 779 779 780 781 781 781 781 781 781 781 782 782 782 781 781 780 779 778 777 775 774 773 771 770 769 767 765 764 761 759 756
690 691 692 693 695 696 698 700 702 703 705 707 709 711 714 716 718 720 722 724 726 729 731 732 734 736 738 739 740 742 743 744 745 746 748 750 751 752 754 755 756 758 759 761 763 766 768 769 771 772 773 775 776 777 778 778 779 780 780 780 780 781 781 781 782 781 781 781 781 780 780 778 777 776 774 773 771 770 769 767 766 764 761 758 755
689 689 690 692 694 695 697 698 699 701 703 705 708 710 713 715 717 718 720 722 724 727 729 730 732 734 736 737 738 740 741 742 744 745 746 747 749 750 751 752 753 755 757 758 760 763 764 766 769 770 771 773 775 776 777 778 779 780 780 780 780 780 780 781 781 781 781 781 781 780 779 778 777 777 775 774 772 770 769 768 766 764 761 758 755
688 687 689 691 693 695 696 697 698 700 702 705 707 710 712 714 716 718 719 720 722 724 726 728 730 732 734 735 737 738 740 741 742 743 744 745 746 747 749 750 751 753 755 757 760 762 763 764 767 769 771 773 774 775 776 778 778 779 779 780 780 780 780 781 781 781 781 781 780 780 779 778 778 777 776 774 773 771 770 768 766 764 761 758 755
687 687 689 691 693 695 696 697 699 701 702 705 707 709 711 712 714 716 718 720 721 723 724 726 728 730 732 734 735 736 737 738 740 741 742 744 745 746 747 749 751 752 755 759 762 764 764 764 766 769 771 772 774 775 776 777 778 778 779 780 780 780 780 780 780 781 781 780 780 779 779 778 778 777 775 774 773 771 770 768 766 763 761 758 756
689 689 690 692 693 696 697 698 699 701 702 704 706 708 710 711 712 715 717 719 721 723 724 726 727 729 730 732 733 735 736 737 738 739 741 744 746 747 749 752 754 754 757 760 762 763 764 765 768 770 772 773 774 775 776 777 778 778 779 779 779 779 780 780 780 780 780 780 780 779 779 778 777 776 775 774 773 771 769 767 765 763 761 759 757
691 691 691 692 693 695 697 698 699 701 702 703 705 707 709 711 713 715 717 718 721 723 725 727 728 729 730 731 732 735 736 737 737 738 740 743 746 748 752 757 759 758 759 761 762 762 764 766 769 772 773 774 774 775 776 777 777 777 778 778 779 779 780 780 780 780 779 780 780 779 779 778 777 776 775 774 773 771 769 767 765 763 761 760 758
693 691 691 692 693 695 696 698 699 700 701 703 705 706 709 711 714 716 718 720 722 724 727 729 731 732 733 733 734 735 737 738 737 738 740 743 745 747 751 758 761 760 759 761 762 763 765 768 770 773 774 774 775 776 777 777 777 777 778 778 779 779 779 779 779 779 779 780 780 779 778 777 776 775 774 773 772 771 769 767 765 763 762 761 758
693 691 691 692 694 695 696 697 698 700 701 703 705 707 709 712 714 717 719 722 725 727 730 732 734 735 738 739 739 738 739 740 739 740 741 744 745 747 751 755 758 758 758 760 763 765 767 770 772 774 774 775 776 777 777 777 777 778 778 778 778 779 779 779 779 779 779 779 779 778 777 776 775 774 773 772 771 769 768 766 764 763 762 761 759
694 692 693 694 695 696 697 698 699 700 702 704 706 708 710 713 716 719 722 725 727 730 733 736 738 739 740 742 743 742 742 743 743 744 745 747 748 749 751 754 755 756 759 762 765 767 769 772 773 774 775 776 776 777 777 778 778 778 778 778 778 778 778 778 778 779 778 778 777 776 775 774 774 773 772 771 770 769 767 765 764 763 762 761 759
696 695 696 697 698 699 699 699 701 702 704 706 708 710 712 715 718 721 724 727 730 732 734 737 739 740 740 742 743 744 744 745 746 748 749 751 752 753 754 754 755 757 760 763 765 768 770 772 774 775 776 776 777 777 778 778 778 778 779 779 779 779 779 779 779 778 778 777 776 775 774 774 773 773 772 771 770 769 767 766 765 764 762 761 759
701 701 701 701 702 703 703 702 703 704 706 708 710 712 715 717 720 722 725 728 731 734 736 738 740 742 743 742 743 744 744 746 748 750 751 752 755 756 757 757 758 759 761 763 766 768 770 772 774 775 776 776 777 778 778 779 779 779 779 779 780 780 779 779 779 778 777 777 776 775 774 773 773 772 772 771 770 769 768 766 765 764 762 761 760
707 707 706 706 706 707 707 706 706 707 708 710 712 714 717 720 722 725 727 729 732 735 737 739 742 744 745 744 744 744 745 747 750 751 753 755 757 758 760 761 762 762 763 765 767 769 771 773 774 775 776 776 777 778 778 779 779 780 780 779 779 779 779 778 778 777 777 776 776 775 774 773 773 772 772 771 770 769 768 766 765 764 763 762 761
710 711 711 710 710 710 710 710 710 710 712 713 715 717 720 722 725 727 729 732 734 736 738 741 744 745 746 747 746 745 746 749 751 752 754 756 758 760 762 763 764 765 766 767 769 770 772 773 774 775 776 776 777 778 778 779 779 779 779 779 778 778 778 777 776 776 775 775 775 774 774 773 773 772 771 770 769 768 767 766 765 764 763 762 761
713 714 714 714 713 713 713 713 713 713 714 716 718 720 722 724 727 729 731 734 736 738 740 744 746 746 747 748 748 747 748 751 753 754 756 758 760 762 764 765 766 767 768 769 770 771 773 774 775 776 776 777 778 778 779 779 779 779 779 778 778 777 777 776 775 775 774 774 773 773 772 772 772 771 770 769 768 767 766 765 765 764 763 762 760
714 716 717 717 716 716 716 716 716 716 717 718 720 722 725 727 729 732 734 736 739 741 743 746 747 747 748 749 749 750 751 753 755 756 758 760 762 764 765 766 768 769 770 770 771 772 773 774 776 777 777 778 778 779 779 779 779 778 778 777 777 776 776 775 774 774 773 773 772 771 771 771 771 770 769 768 767 766 765 764 764 763 762 761 760
715 716 717 717 718 718 718 718 718 718 719 720 722 725 727 729 732 734 736 739 741 743 745 747 748 749 750 751 752 753 754 755 757 758 760 762 763 765 766 767 769 770 771 772 773 774 774 776 777 778 778 779 779 779 779 779 778 778 777 776 776 775 774 774 773 772 772 771 770 770 769 769 769 768 767 767 766 765 764 763 762 761 760 759 758
716 716 717 717 718 719 721 721 721 721 721 722 724 726 729 731 734 736 738 740 742 744 746 747 749 750 752 753 755 756 757 758 759 760 762 763 765 766 767 768 769 771 772 773 774 775 776 777 778 779 779 780 780 780 779 779 778 777 777 776 775 774 773 772 772 771 770 769 768 768 767 767 767 766 766 765 764 763 762 761 760 759 758 757 756
716 716 716 717 718 720 723 724 724 724 724 725 725 727 730 732 735 737 740 741 743 745 747 749 750 751 753 755 757 758 759 760 761 763 764 766 767 768 769 770 771 772 773 774 776 777 778 778 779 780 780 780 780 780 779 779 778 777 776 775 774 773 772 771 770 769 768 767 767 766 765 764 764 764 763 762 761 760 759 758 757 757 756 755 754
717 716 716 716 717 720 724 726 727 727 727 728 729 730 732 734 737 739 741 743 744 746 748 750 752 753 755 757 758 760 761 762 763 765 767 768 769 770 771 772 773 774 775 776 777 778 779 779 780 780 780 780 779 779 779 778 778 777 776 775 774 772 771 770 769 768 767 766 765 764 763 762 762 761 760 760 759 757 756 755 754 754 753 752 751
716 715 715 716 718 721 724 727 728 729 729 730 731 732 734 736 738 741 743 745 747 748 750 752 754 756 758 759 761 762 763 764 765 767 769 770 771 772 773 774 775 776 777 777 778 779 779 780 780 780 780 779 779 779 779 778 777 776 775 774 773 772 771 769 768 767 766 765 764 763 762 761 760 759 758 757 756 755 754 753 752 751 751 749 749
716 716 715 716 718 722 725 727 728 730 731 732 733 734 735 737 740 742 744 746 748 751 753 755 757 758 759 761 762 763 764 766 767 769 770 771 772 773 774 776 777 777 778 778 779 779 780 780 780 780 779 779 779 779 779 778 777 776 776 774 773 772 770 769 768 766 765 764 763 762 762 761 760 758 757 755 754 753 752 751 750 750 748 747 746
716 716 715 717 719 723 726 727 729 732 733 734 735 736 738 739 742 744 746 747 750 752 754 756 758 760 762 763 764 765 767 768 769 771 772 773 774 775 776 777 778 778 779 779 780 780 780 780 780 780 780 780 779 779 779 779 778 777 776 775 773 772 770 769 767 766 765 764 763 762 761 760 759 758 756 755 753 752 751 750 749 748 746 745 744